Home   Weather   Kuwait City   Past weeks

Flag for Kuwait Past Weather in Kuwait City, Kuwait — Yesterday and Last 2 Weeks

Now
48 °F

Clear.


Feels Like: 43 °F
Forecast: 44 / 60 °F
Wind: 13 mph from Northwest

Location: Kuwait International Airport

Current Time: Dec 10, 2016 at 2:29:58 am

Latest Report: Dec 10, 2016 at 2:00 am


Visibility: 10 mi

Pressure: 30.18 "Hg

Humidity: 32%

Dew Point: 19 °F

Location of Kuwait CityLocation

Past Weather in Kuwait City — Graph

°F

Kuwait City Temperature Yesterday

Maximum temperature yesterday: 64 °F (at 1:00 pm)
Minimum temperature yesterday: 52 °F (at 12:00 am)
Average temperature yesterday: 58 °F

High & Low Weather Summary for the Past Weeks

 TemperatureHumidityPressure
High75 °F (Nov 29, 3:00 pm)100% (Nov 30, 9:00 pm)30.30 "Hg (Nov 30, 9:00 pm)
Low45 °F (Nov 25, 6:00 am)14% (Nov 29, 1:00 pm)29.92 "Hg (Dec 1, 1:00 pm)
Average62 °F48%30.13 "Hg
* Reported Nov 25 1:00 am — Dec 10 1:00 am, Kuwait City, Weather by CustomWeather, © 2016

Note: Actual official high and low records may vary slightly from our data, if they occured in-between our weather recording intervals... More about our weather records

Advertising

Kuwait City Weather History for the Previous 24 Hours

Scroll right to see more
 ConditionsComfort  
Time TempWeatherWind HumidityBarometerVisibility
1:00 am
Sat, Dec 10
50 °FClear.13 mph35%30.18 "Hg10 mi
12:00 am52 °FClear.15 mph30%30.21 "Hg10 mi
11:00 pm
Fri, Dec 9
54 °FClear.13 mph28%30.21 "Hg10 mi
10:00 pm54 °FClear.12 mph33%30.21 "Hg10 mi
9:00 pm55 °FClear.14 mph31%30.21 "Hg10 mi
8:00 pm57 °FClear.15 mph29%30.21 "Hg10 mi
7:00 pm59 °FClear.12 mph29%30.18 "Hg10 mi
6:00 pm61 °FClear.14 mph25%30.18 "Hg10 mi
5:00 pm63 °FClear.14 mph25%30.15 "Hg10 mi
3:59 pm64 °FSunny.18 mph26%30.15 "Hg10 mi
3:00 pm64 °FSunny.18 mph30%30.15 "Hg10 mi
2:00 pm64 °FSunny.17 mph26%30.15 "Hg10 mi
1:00 pm64 °FSunny.18 mph26%30.15 "Hg10 mi
12:00 pm63 °FSunny.20 mph25%30.18 "Hg10 mi
11:00 am61 °FSunny.15 mph31%30.21 "Hg10 mi
10:00 am59 °FSunny.20 mph36%30.21 "Hg10 mi
9:00 am57 °FSunny.15 mph33%30.21 "Hg10 mi
8:00 am54 °FScattered clouds.18 mph38%30.18 "HgN/A
7:00 am54 °FPartly sunny.13 mph44%30.18 "HgN/A
6:00 am54 °FClear.9 mph47%30.15 "Hg10 mi
5:00 am54 °FClear.10 mph51%30.15 "Hg10 mi
4:00 am54 °FClear.12 mph51%30.12 "Hg10 mi
3:00 am54 °FClear.8 mph54%30.12 "Hg10 mi
2:00 am55 °FClear.10 mph47%30.12 "Hg10 mi
Weather by CustomWeather, © 2016

See weather overviewHow to use our weather pages